Lawrenceville, IL

11:30 PM CDT on July 29, 2016 (GMT -0500)
Lawrenceville-Vincennes International

Weather History for KLWV - September, 2012

Change the Weather History Date:

Wednesday, September 12, 2012

  Actual Average Record
Temperature  
Mean Temperature 71 °F 71 °F  
Max Temperature 85 °F 84 °F 91 °F (1999)
Min Temperature 57 °F 59 °F 46 °F (1993)
Degree Days  
Heating Degree Days 0 0  
Month to date heating degree days 0 0  
Since 1 July heating degree days 0 1  
Cooling Degree Days 6 6  
Month to date cooling degree days 113 95  
Year to date cooling degree days 1674 1278  
Growing Degree Days 20 (Base 50)    
Moisture  
Dew Point 57 °F    
Average Humidity 67    
Maximum Humidity 93    
Minimum Humidity 40    
Precipitation  
Precipitation 0.00 in 0.13 in 3.05 in (2008)
Month to date precipitation 5.54 1.29  
Year to date precipitation 20.98 30.64  
Sea Level Pressure  
Sea Level Pressure 30.20 in    
Wind  
Wind Speed 5 mph (South)    
Max Wind Speed 17 mph    
Max Gust Speed 23 mph    
Visibility 8 miles    
Events      
T = Trace of Precipitation, MM = Missing Value Source: NWS Daily Summary

Daily Weather History Graph

Daily Weather History Graph

Search for Another Location

Airport or City:

Trip Planner

Search our weather history database for the weather conditions in past years. The results will help you decide how hot, cold, wet, or windy it might be!

Date:

Astronomy

Sep. 12, 2012 Rise Set
Actual Time 6:29 AM CDT 7:02 PM CDT
Civil Twilight 6:02 AM CDT 7:29 PM CDT
Nautical Twilight 5:31 AM CDT 8:00 PM CDT
Astronomical Twilight 4:58 AM CDT 8:33 PM CDT
Moon 2:48 AM CDT (9/12) 4:48 PM CDT (9/12)
Length of Visible Light 13h 26m
Length of Day
12h 32m
Waning Crescent, 13% of the Moon is Illuminated
Sep 12
Waning Crescent
Sep 15
New
Sep 22
First Quarter
Sep 29
Full
Oct 8
Last Quarter

Hourly Weather History & Observations

Time (CDT) Temp. Heat Index Dew Point Humidity Pressure Visibility Wind Dir Wind Speed Gust Speed Precip Events Conditions
12:53 AM 60.1 °F - 55.9 °F 86% 30.17 in 8.0 mi Calm Calm - N/A   Clear
1:53 AM 60.1 °F - 55.9 °F 86% 30.17 in 8.0 mi Calm Calm - N/A   Clear
2:53 AM 59.0 °F - 55.0 °F 87% 30.17 in 8.0 mi Calm Calm - N/A   Clear
3:53 AM 57.9 °F - 55.0 °F 90% 30.17 in 7.0 mi Calm Calm - N/A   Clear
4:53 AM 59.0 °F - 55.0 °F 87% 30.18 in 5.0 mi Calm Calm - N/A   Clear
5:53 AM 57.9 °F - 55.0 °F 90% 30.19 in 5.0 mi Calm Calm - N/A   Partly Cloudy
6:53 AM 57.0 °F - 55.0 °F 93% 30.22 in 4.0 mi East 3.5 mph - N/A   Partly Cloudy
7:53 AM 63.0 °F - 59.0 °F 87% 30.24 in 4.0 mi Calm Calm - N/A   Scattered Clouds
8:53 AM 68.0 °F - 60.1 °F 76% 30.25 in 7.0 mi South 6.9 mph - N/A   Clear
9:53 AM 75.9 °F - 61.0 °F 60% 30.25 in 9.0 mi SSW 6.9 mph - N/A   Clear
10:53 AM 79.0 °F - 61.0 °F 54% 30.25 in 10.0 mi South 8.1 mph - N/A   Mostly Cloudy
11:53 AM 81.0 °F 81.1 °F 57.9 °F 45% 30.23 in 10.0 mi South 11.5 mph - N/A   Scattered Clouds
12:53 PM 82.0 °F 81.7 °F 57.0 °F 42% 30.21 in 10.0 mi SSW 10.4 mph - N/A   Scattered Clouds
1:53 PM 84.0 °F 84.0 °F 60.1 °F 44% 30.19 in 10.0 mi SW 10.4 mph - N/A   Mostly Cloudy
2:53 PM 84.9 °F 84.2 °F 57.9 °F 40% 30.18 in 10.0 mi South 12.7 mph 19.6 mph N/A   Overcast
3:53 PM 82.0 °F 81.6 °F 55.9 °F 41% 30.17 in 10.0 mi South 5.8 mph - N/A   Overcast
4:53 PM 82.0 °F 81.4 °F 55.0 °F 39% 30.16 in 10.0 mi South 12.7 mph 23.0 mph N/A   Overcast
5:53 PM 80.1 °F 80.1 °F 55.0 °F 42% 30.17 in 10.0 mi South 10.4 mph - N/A   Scattered Clouds
6:53 PM 75.9 °F - 57.0 °F 52% 30.17 in 9.0 mi South 5.8 mph - N/A   Partly Cloudy
7:53 PM 71.1 °F - 57.9 °F 63% 30.18 in 10.0 mi SSE 5.8 mph - N/A   Partly Cloudy
8:53 PM 68.0 °F - 57.9 °F 70% 30.20 in 8.0 mi SSE 3.5 mph - N/A   Clear
9:53 PM 64.9 °F - 57.9 °F 78% 30.20 in 8.0 mi SE 5.8 mph - N/A   Clear
10:53 PM 63.0 °F - 57.9 °F 84% 30.21 in 7.0 mi Calm Calm - N/A   Clear
11:53 PM 62.1 °F - 57.9 °F 86% 30.21 in 7.0 mi East 3.5 mph - N/A   Scattered Clouds